Hourly Data Report for August 04, 2017

TORONTO CITY
ONTARIO

43°40'00.000" N
79°24'00.000" W
112.50 m
6158355
71508
XTO

Download Data

Hourly Data (August 2017)
Hourly Data Report for August 4, 2017
TIME
LST
Temp Definition
°C
Dew Point Definition
°C
Rel Hum Definition
%
Precip. Amount Definition
mm

Wind Dir Definition
10's deg

Wind Spd Definition
km/h
Visibility Definition
km
Stn Press Definition
kPa
Hmdx Definition


Wind Chill Definition


Weather Definition


00:00 22.0 18.0 78 0.0 LegendMM LegendMM   99.97 28   LegendNANA
01:00 22.0 18.2 79 0.0 LegendMM LegendMM   99.95 28   LegendNANA
02:00 21.4 18.0 81 0.0 LegendMM LegendMM   99.90 27   LegendNANA
03:00 21.3 18.2 83 0.0 LegendMM LegendMM   99.87 27   LegendNANA
04:00 21.5 18.5 83 0.0 LegendMM LegendMM   99.83 28   LegendNANA
05:00 21.2 18.2 83 0.0 LegendMM LegendMM   99.80 27   LegendNANA
06:00 21.4 18.5 84 0.0 LegendMM LegendMM   99.77 28   LegendNANA
07:00 21.2 18.7 86 0.3 LegendMM LegendMM   99.75 28   LegendNANA
08:00 22.1 19.1 83 0.0 LegendMM LegendMM   99.73 29   LegendNANA
09:00 23.6 19.2 77 0.0 LegendMM LegendMM   99.72 31   LegendNANA
10:00 24.2 19.8 76 0.0 LegendMM LegendMM   99.67 32   LegendNANA
11:00 25.2 20.0 73 0.0 LegendMM LegendMM   99.60 33   LegendNANA
12:00 25.6 19.0 67 0.0 LegendMM LegendMM   99.51 32   LegendNANA
13:00 25.0 17.4 63 0.0 LegendMM LegendMM   99.46 31   LegendNANA
14:00 25.0 18.0 65 0.0 LegendMM LegendMM   99.42 31   LegendNANA
15:00 23.4 18.8 76 0.0 LegendMM LegendMM   99.36 30   LegendNANA
16:00 21.3 18.6 85 1.9 LegendMM LegendMM   99.48 28   LegendNANA
17:00 19.5 17.7 89 5.3 LegendMM LegendMM   99.45     LegendNANA
18:00 19.7 17.8 89 1.0 LegendMM LegendMM   99.34     LegendNANA
19:00 20.0 17.6 86 0.0 LegendMM LegendMM   99.30 26   LegendNANA
20:00 20.4 16.2 77 0.0 LegendMM LegendMM   99.28 25   LegendNANA
21:00 21.1 13.7 63 0.0 LegendMM LegendMM   99.35     LegendNANA
22:00 19.2 11.6 61 0.0 LegendMM LegendMM   99.40     LegendNANA
23:00 18.2 11.2 64 0.0 LegendMM LegendMM   99.43     LegendNANA

Notes on Data Quality.

Legend

  • E = Estimated
  • M = Missing
  • NA = Not Available*
  • [empty] = Indicates an unobserved value
Date modified: